This is the latest recevied weather packets stored in our database for station/object SQ9SMC-13. If no packets are shown the sender has not sent any weather packets the latest 10 day(s).
| Time | Temp. | Humidity | Pressure | Rain* | Wind** | Luminosity | Snow |
|---|---|---|---|---|---|---|---|
| 1777702203 | 15° C | 55% | 1027.2 hPa | 0 mm | - | 223 W/m² | - |
| 1777701903 | 14.44° C | 59% | 1027.1 hPa | 0 mm | - | 210 W/m² | - |
| 1777701604 | 13.89° C | 62% | 1027 hPa | 0 mm | - | 197 W/m² | - |
| 1777701305 | 12.78° C | 62% | 1027.1 hPa | 0 mm | - | 185 W/m² | - |
| 1777701004 | 12.22° C | 66% | 1027.1 hPa | 0 mm | - | 174 W/m² | - |
| 1777700703 | 11.11° C | 68% | 1027.1 hPa | 0 mm | - | 163 W/m² | - |
| 1777700403 | 10.56° C | 72% | 1027.1 hPa | 0 mm | - | 153 W/m² | - |
| 1777700104 | 10° C | 73% | 1027.1 hPa | 0 mm | - | 142 W/m² | - |
| 1777699803 | 9.44° C | 74% | 1027.1 hPa | 0 mm | - | 133 W/m² | - |
| 1777699503 | 8.89° C | 74% | 1027.1 hPa | 0 mm | - | 121 W/m² | - |
| 1777699202 | 8.89° C | 75% | 1027.2 hPa | 0 mm | - | 107 W/m² | - |
| 1777698902 | 7.78° C | 81% | 1027.1 hPa | 0 mm | - | 93 W/m² | - |
| 1777698603 | 6.67° C | 81% | 1027.2 hPa | 0 mm | - | 79 W/m² | - |
| 1777698303 | 6.67° C | 81% | 1027.1 hPa | 0 mm | - | 64 W/m² | - |
| 1777698007 | 6.67° C | 83% | 1027.2 hPa | 0 mm | - | 57 W/m² | - |
| 1777697703 | 6.67° C | 80% | 1027 hPa | 0 mm | - | 48 W/m² | - |
| 1777697403 | 6.11° C | 82% | 1027.2 hPa | 0 mm | - | 43 W/m² | - |
| 1777697103 | 5.56° C | 83% | 1026.9 hPa | 0 mm | - | 41 W/m² | - |
| 1777696804 | 5.56° C | 83% | 1027 hPa | 0 mm | - | 39 W/m² | - |
| 1777696502 | 5° C | 93% | 1027 hPa | 0 mm | - | 36 W/m² | - |
| 1777696203 | 4.44° C | 99% | 1026.8 hPa | 0 mm | - | 34 W/m² | - |
| 1777695903 | 3.89° C | 99% | 1027.1 hPa | 0 mm | - | 31 W/m² | - |
| 1777695603 | 2.22° C | 99% | 1027.1 hPa | 0 mm | - | 29 W/m² | - |
| 1777695303 | 2.22° C | 99% | 1026.8 hPa | 0 mm | - | 26 W/m² | - |
| 1777695002 | 1.11° C | 99% | 1027.1 hPa | 0 mm | - | 30 W/m² | - |
* Rain latest hour (hover to see other rain measurements)
** Current wind speed in m/s (hover to see current wind gust speed)